When you browse on this site, cookies collect data to enhance your experience and personalize the content and advertising you see.
Visit our Privacy Policy to learn more. By continuing to use the site, you agree to this use of cookies and data.

Hourly Weather Langenthal

Today, 9 July, Thursday

Time Temperature Precipitation Wind Pressure Humidity
00:00 +16°C° 0 mm 1 mps 720 mmHg 90%
01:00 +16°C° 0 mm 1 mps 719 mmHg 89%
02:00 +16°C° 0 mm 1 mps 719 mmHg 89%
03:00 +15°C° 0 mm 1 mps 719 mmHg 88%
04:00 +15°C° 0 mm 1 mps 718 mmHg 87%
05:00 +16°C° 0 mm 1 mps 719 mmHg 84%
06:00 +19°C° 0 mm 1 mps 719 mmHg 80%
07:00 +20°C° 0 mm 1 mps 719 mmHg 77%
08:00 +22°C° 0 mm 1 mps 719 mmHg 68%
09:00 +25°C° 0 mm 1 mps 719 mmHg 60%
10:00 +28°C° 0 mm 1 mps 720 mmHg 51%
11:00 +28°C° 0 mm 1 mps 719 mmHg 48%
12:00 +29°C° 0 mm 2 mps 719 mmHg 44%
13:00 +30°C° 0 mm 2 mps 719 mmHg 41%
14:00 +30°C° 0 mm 2 mps 719 mmHg 41%
15:00 +30°C° 0 mm 2 mps 719 mmHg 41%
16:00 +31°C° 0 mm 2 mps 718 mmHg 41%
17:00 +29°C° 0 mm 2 mps 718 mmHg 51%
18:00 +28°C° 0 mm 1 mps 718 mmHg 61%
19:00 +26°C° 0 mm 1 mps 717 mmHg 71%
20:00 +24°C° 0 mm 1 mps 718 mmHg 75%
21:00 +22°C° 0 mm 1 mps 718 mmHg 80%
22:00 +20°C° 0 mm 1 mps 718 mmHg 84%
23:00 +20°C° 0 mm 1 mps 718 mmHg 84%

Tomorrow, 10 July, Friday

Time Temperature Precipitation Wind Pressure Humidity
00:00 +20°C° 0 mm 1 mps 718 mmHg 83%
01:00 +19°C° 0 mm 1 mps 717 mmHg 82%
02:00 +19°C° 0 mm 1 mps 717 mmHg 82%
03:00 +18°C° 0 mm 1 mps 717 mmHg 81%
04:00 +18°C° 0 mm 1 mps 716 mmHg 81%
05:00 +19°C° 0.1 mm 1 mps 717 mmHg 79%
06:00 +20°C° 0.1 mm 1 mps 717 mmHg 78%
07:00 +21°C° 0.1 mm 1 mps 717 mmHg 77%
08:00 +23°C° 0 mm 1 mps 717 mmHg 70%
09:00 +25°C° 0 mm 1 mps 717 mmHg 63%
10:00 +27°C° 0 mm 2 mps 717 mmHg 56%
11:00 +28°C° 0.4 mm 2 mps 717 mmHg 58%
12:00 +28°C° 0.4 mm 3 mps 717 mmHg 61%
13:00 +28°C° 0.4 mm 4 mps 717 mmHg 64%
14:00 +27°C° 1.3 mm 3 mps 717 mmHg 71%
15:00 +25°C° 1.3 mm 3 mps 717 mmHg 79%
16:00 +24°C° 1.3 mm 3 mps 717 mmHg 87%
17:00 +23°C° 0.9 mm 2 mps 717 mmHg 88%
18:00 +21°C° 0.9 mm 2 mps 717 mmHg 89%
19:00 +21°C° 0.9 mm 1 mps 717 mmHg 90%
20:00 +20°C° 0.7 mm 1 mps 718 mmHg 91%
21:00 +19°C° 0.7 mm 1 mps 718 mmHg 91%
22:00 +18°C° 0.7 mm 1 mps 718 mmHg 92%
23:00 +18°C° 0.6 mm 1 mps 718 mmHg 93%

Day after tomorrow, 11 July, Saturday

Time Temperature Precipitation Wind Pressure Humidity
00:00 +16°C° 0.6 mm 1 mps 718 mmHg 94%
01:00 +16°C° 0.6 mm 1 mps 718 mmHg 95%
02:00 +16°C° 0.4 mm 1 mps 718 mmHg 95%
03:00 +15°C° 0.4 mm 0 mps 718 mmHg 95%
04:00 +14°C° 0.4 mm 0 mps 719 mmHg 95%
05:00 +15°C° 1.1 mm 0 mps 719 mmHg 95%
06:00 +15°C° 1.1 mm 0 mps 719 mmHg 95%
07:00 +15°C° 1.1 mm 0 mps 719 mmHg 95%
08:00 +18°C° 0.5 mm 1 mps 720 mmHg 90%
09:00 +19°C° 0.5 mm 1 mps 720 mmHg 85%
10:00 +20°C° 0.5 mm 1 mps 721 mmHg 81%
11:00 +20°C° 0.3 mm 2 mps 721 mmHg 74%
12:00 +21°C° 0.3 mm 2 mps 721 mmHg 67%
13:00 +22°C° 0.3 mm 3 mps 721 mmHg 61%
14:00 +21°C° 0.4 mm 3 mps 721 mmHg 63%
15:00 +21°C° 0.4 mm 3 mps 721 mmHg 65%
16:00 +21°C° 0.4 mm 3 mps 721 mmHg 66%
17:00 +20°C° 0.3 mm 2 mps 721 mmHg 71%
18:00 +19°C° 0.3 mm 2 mps 721 mmHg 75%
19:00 +19°C° 0.3 mm 1 mps 722 mmHg 80%
20:00 +18°C° 0 mm 1 mps 722 mmHg 83%
21:00 +15°C° 0 mm 1 mps 722 mmHg 85%
22:00 +14°C° 0 mm 1 mps 722 mmHg 88%
23:00 +13°C° 0 mm 1 mps 722 mmHg 90%

12 July, Sunday

Time Temperature Precipitation Wind Pressure Humidity
00:00 +12°C° 0 mm 1 mps 722 mmHg 91%
01:00 +12°C° 0 mm 1 mps 722 mmHg 93%
02:00 +11°C° 0 mm 1 mps 722 mmHg 93%
03:00 +11°C° 0 mm 1 mps 721 mmHg 94%
04:00 +10°C° 0 mm 1 mps 721 mmHg 94%
05:00 +11°C° 0 mm 1 mps 721 mmHg 91%
06:00 +12°C° 0 mm 1 mps 722 mmHg 87%
07:00 +13°C° 0 mm 1 mps 722 mmHg 83%
08:00 +15°C° 0 mm 2 mps 722 mmHg 75%
09:00 +17°C° 0 mm 3 mps 722 mmHg 67%
10:00 +19°C° 0 mm 3 mps 722 mmHg 58%
11:00 +20°C° 0 mm 4 mps 722 mmHg 54%
12:00 +22°C° 0 mm 4 mps 722 mmHg 49%
13:00 +23°C° 0 mm 4 mps 722 mmHg 44%
14:00 +23°C° 0 mm 4 mps 722 mmHg 44%
15:00 +23°C° 0 mm 4 mps 722 mmHg 44%
16:00 +25°C° 0 mm 4 mps 722 mmHg 44%
17:00 +22°C° 0 mm 3 mps 722 mmHg 51%
18:00 +21°C° 0 mm 3 mps 722 mmHg 59%
19:00 +20°C° 0 mm 2 mps 722 mmHg 66%
20:00 +18°C° 0 mm 2 mps 722 mmHg 71%
21:00 +16°C° 0 mm 2 mps 722 mmHg 76%
22:00 +14°C° 0 mm 2 mps 722 mmHg 82%
23:00 +14°C° 0 mm 2 mps 722 mmHg 84%

13 July, Monday

Time Temperature Precipitation Wind Pressure Humidity
00:00 +13°C° 0 mm 1 mps 721 mmHg 86%
01:00 +12°C° 0 mm 1 mps 721 mmHg 88%
02:00 +12°C° 0 mm 1 mps 721 mmHg 89%
03:00 +11°C° 0 mm 1 mps 721 mmHg 90%
04:00 +11°C° 0 mm 1 mps 721 mmHg 91%
05:00 +12°C° 0 mm 1 mps 721 mmHg 87%
06:00 +13°C° 0 mm 1 mps 721 mmHg 83%
07:00 +14°C° 0 mm 1 mps 721 mmHg 78%
08:00 +16°C° 0 mm 1 mps 721 mmHg 72%
09:00 +18°C° 0 mm 2 mps 721 mmHg 65%
10:00 +20°C° 0 mm 2 mps 721 mmHg 59%
11:00 +21°C° 0 mm 2 mps 721 mmHg 55%
12:00 +24°C° 0 mm 2 mps 721 mmHg 51%
13:00 +25°C° 0 mm 2 mps 721 mmHg 48%
14:00 +25°C° 0 mm 2 mps 720 mmHg 47%
15:00 +26°C° 0 mm 2 mps 720 mmHg 45%
16:00 +26°C° 0 mm 2 mps 720 mmHg 44%
17:00 +25°C° 0 mm 2 mps 720 mmHg 52%
18:00 +23°C° 0 mm 2 mps 719 mmHg 60%
19:00 +21°C° 0 mm 2 mps 719 mmHg 68%
20:00 +19°C° 0 mm 2 mps 719 mmHg 75%
21:00 +18°C° 0 mm 1 mps 719 mmHg 81%
22:00 +15°C° 0 mm 1 mps 719 mmHg 88%
23:00 +15°C° 0 mm 1 mps 718 mmHg 90%

14 July, Tuesday

Time Temperature Precipitation Wind Pressure Humidity
00:00 +14°C° 0 mm 1 mps 718 mmHg 91%
01:00 +13°C° 0 mm 1 mps 718 mmHg 93%
02:00 +13°C° 0 mm 1 mps 717 mmHg 93%
03:00 +13°C° 0 mm 1 mps 717 mmHg 93%
04:00 +11°C° 0 mm 0 mps 717 mmHg 93%
05:00 +13°C° 0 mm 0 mps 717 mmHg 90%
06:00 +14°C° 0 mm 0 mps 717 mmHg 86%
07:00 +16°C° 0 mm 1 mps 717 mmHg 83%
08:00 +20°C° 0 mm 1 mps 717 mmHg 74%
09:00 +22°C° 0 mm 1 mps 718 mmHg 65%
10:00 +25°C° 0 mm 1 mps 718 mmHg 57%
11:00 +26°C° 0 mm 1 mps 717 mmHg 52%
12:00 +28°C° 0 mm 1 mps 717 mmHg 48%
13:00 +29°C° 0 mm 1 mps 717 mmHg 43%
14:00 +29°C° 0.1 mm 1 mps 717 mmHg 45%
15:00 +28°C° 0.1 mm 1 mps 717 mmHg 46%
16:00 +28°C° 0.1 mm 1 mps 717 mmHg 47%
17:00 +27°C° 0.2 mm 1 mps 716 mmHg 57%
18:00 +25°C° 0.2 mm 1 mps 716 mmHg 67%
19:00 +23°C° 0.2 mm 1 mps 716 mmHg 77%
20:00 +22°C° 0.1 mm 1 mps 716 mmHg 81%
21:00 +20°C° 0.1 mm 1 mps 717 mmHg 84%
22:00 +18°C° 0.1 mm 1 mps 717 mmHg 88%
23:00 +18°C° 0.1 mm 1 mps 717 mmHg 89%
Show more